"startDT [UTC]","vpos","CH4 [ppm]","stdev(CH4) [ppm]","CO2 [ppm]","stdev(CO2) [ppm]","H2O_reported [%]","stdev(H2O_reported)","CavityPressure [torr]","CavityTemp [C]","OutletValve","CH4_dry [ppm]","CO2_dry [ppm]","DasTemp [C]","EtalonTemp [C]","WarmBoxTemp [C]","MPVPosition","T_ECpre [C]","T_EC1 [C]","T_EC2 [C]","p_inlet [hPa]","p_in [hPa]","p_out [hPa]","T_inlet [C]","RH_inlet [%]","dwpt_inlet [C]","T_vent [C]","RH_vent [%]","dwpt_vent [C]","flow_vent [l min-1]","flow_inlet [l min-1]","dwpt_sample [C]","T_room [C]"
2013-09-20 00:00:00,0.0,1.89558,0.00041,390.210,0.084,0.5072,0.0019,140.002,45.000,31470.78245,1.90504,392.614,29.438,45.057,45.000,0.00,0.12,-272.57,-272.64,-20,560,4,15.0,22.7,-6.2,15.2,23.7,-5.5,5.73,2.59,-4.4,21.7
2013-09-20 00:01:00,0.0,1.89556,0.00036,390.263,0.036,0.5094,0.0020,139.999,45.000,31468.58507,1.90517,392.691,29.438,45.057,45.000,0.00,0.12,-272.58,-272.64,-19,560,4,15.0,22.8,-6.1,15.2,23.7,-5.4,5.73,2.51,-4.4,21.8
2013-09-20 00:02:00,0.0,1.89575,0.00021,390.310,0.021,0.5103,0.0024,139.996,45.000,31466.45482,1.90544,392.745,29.438,45.057,45.000,0.00,0.12,-272.57,-272.63,-19,559,4,15.0,22.8,-6.1,15.2,23.8,-5.4,5.73,2.61,-4.4,21.8
2013-09-20 00:03:00,0.0,1.89616,0.00018,390.236,0.070,0.5117,0.0020,140.004,45.000,31470.45849,1.90583,392.679,29.438,45.057,45.000,0.00,0.12,-272.57,-272.64,-20,559,4,15.0,22.9,-6.1,15.2,23.9,-5.3,5.73,2.61,-4.4,21.8
2013-09-20 00:04:00,0.0,1.89851,0.00106,390.382,0.091,0.5121,0.0016,140.000,45.000,31468.31665,1.90783,392.805,29.441,45.057,45.000,0.00,0.12,-272.58,-272.64,-20,560,4,15.0,23.0,-6.0,15.2,23.9,-5.3,5.73,2.51,-4.4,21.8
2013-09-20 00:05:00,0.0,1.90270,0.00197,390.658,0.106,0.5139,0.0012,139.997,45.000,31467.91630,1.91183,393.092,29.453,45.057,45.000,0.00,0.12,-272.57,-272.63,-19,560,4,15.0,23.0,-6.0,15.2,24.0,-5.3,5.73,2.59,-4.4,21.7
2013-09-20 00:06:00,0.0,1.90487,0.00049,390.774,0.056,0.5208,0.0086,140.007,45.000,31469.03494,1.91485,393.257,29.440,45.057,45.000,0.00,0.12,-272.57,-272.63,-19,559,4,15.0,23.3,-5.8,15.2,24.3,-5.1,5.73,2.63,-4.4,21.7
2013-09-20 00:07:00,0.0,1.90456,0.00087,390.659,0.077,0.5258,0.0048,140.001,45.000,31467.68424,1.91471,393.186,29.447,45.057,45.000,0.00,0.12,-272.57,-272.64,-20,560,4,15.0,23.5,-5.7,15.2,24.5,-5.0,5.73,2.52,-4.4,21.7
2013-09-20 00:08:00,0.0,1.90534,0.00091,390.620,0.068,0.5210,0.0017,140.001,45.000,31469.38939,1.91499,393.096,29.449,45.057,45.000,0.00,0.12,-272.57,-272.64,-20,560,4,15.0,23.3,-5.8,15.2,24.3,-5.1,5.73,2.55,-4.4,21.7
2013-09-20 00:09:00,0.0,1.90813,0.00123,390.819,0.076,0.5194,0.0026,140.001,45.000,31470.48666,1.91770,393.288,29.455,45.057,45.000,0.00,0.12,-272.57,-272.63,-19,560,4,15.0,23.2,-5.9,15.2,24.2,-5.2,5.73,2.64,-4.4,21.8
2013-09-20 00:10:00,0.0,1.90802,0.00061,390.760,0.094,0.5198,0.0007,140.004,45.000,31469.42153,1.91812,393.255,29.485,45.057,45.000,0.00,0.12,-272.57,-272.64,-19,559,4,15.0,23.2,-5.9,15.2,24.2,-5.2,5.73,2.56,-4.4,21.8
2013-09-20 00:11:00,0.0,1.90706,0.00053,390.628,0.051,0.5206,0.0008,139.999,45.000,31466.79767,1.91699,393.109,29.452,45.057,45.000,0.00,0.12,-272.57,-272.64,-20,559,4,15.0,23.2,-5.9,15.2,24.2,-5.1,5.73,2.52,-4.4,21.8
2013-09-20 00:12:00,0.0,1.90753,0.00041,390.702,0.040,0.5182,0.0016,140.000,45.000,31467.50813,1.91740,393.180,29.451,45.057,45.000,0.00,0.12,-272.57,-272.63,-20,560,4,15.0,23.2,-5.9,15.2,24.2,-5.1,5.73,2.63,-4.4,21.8
2013-09-20 00:13:00,0.0,1.90747,0.00054,390.642,0.046,0.5194,0.0022,140.001,45.000,31466.56454,1.91739,393.118,29.451,45.057,45.000,0.00,0.12,-272.57,-272.64,-20,560,4,15.0,23.3,-5.8,15.2,24.3,-5.1,5.73,2.59,-4.4,21.8
2013-09-20 00:14:00,0.0,1.90653,0.00025,390.633,0.012,0.5205,0.0020,140.003,45.000,31466.54068,1.91660,393.119,29.455,45.057,45.000,0.00,0.12,-272.58,-272.64,-19,559,4,15.0,23.3,-5.8,15.2,24.3,-5.1,5.73,2.51,-4.4,21.7
2013-09-20 00:15:00,0.0,1.90458,0.00086,390.504,0.066,0.5231,0.0020,140.004,45.000,31469.17140,1.91471,393.007,29.459,45.057,45.000,0.00,0.12,-272.58,-272.64,-20,559,4,15.0,23.4,-5.8,15.2,24.4,-5.1,5.73,2.60,-4.4,21.8
2013-09-20 00:16:00,0.0,1.90532,0.00079,390.605,0.039,0.5217,0.0016,140.000,45.000,31468.97587,1.91501,393.083,29.457,45.057,45.000,0.00,0.12,-272.58,-272.63,-20,560,4,15.0,23.4,-5.8,15.2,24.4,-5.0,5.73,2.62,-4.4,21.8
2013-09-20 00:17:00,0.0,1.90567,0.00086,390.630,0.018,0.5230,0.0022,140.002,45.000,31468.80559,1.91584,393.127,29.481,45.057,45.000,0.00,0.12,-272.58,-272.64,-19,560,4,15.0,23.5,-5.7,15.2,24.5,-5.0,5.73,2.51,-4.4,21.8
2013-09-20 00:18:00,0.0,1.90427,0.00037,390.611,0.039,0.5258,0.0016,140.004,45.000,31471.41054,1.91433,393.120,29.479,45.057,45.000,0.00,0.12,-272.57,-272.64,-20,559,4,15.0,23.5,-5.7,15.2,24.5,-5.0,5.73,2.59,-4.4,21.8
2013-09-20 00:19:00,0.0,1.90350,0.00090,390.555,0.059,0.5265,0.0025,140.002,45.000,31470.28409,1.91360,393.070,29.450,45.057,45.000,0.00,0.12,-272.57,-272.63,-20,560,4,15.0,23.5,-5.7,15.2,24.6,-5.0,5.73,2.63,-4.4,21.8
2013-09-20 00:20:00,0.0,1.90328,0.00081,390.538,0.082,0.5264,0.0016,140.003,45.000,31470.16568,1.91335,393.050,29.475,45.057,45.000,0.00,0.12,-272.58,-272.64,-20,560,4,15.0,23.6,-5.7,15.2,24.6,-4.9,5.73,2.51,-4.4,21.8
2013-09-20 00:21:00,0.0,1.90336,0.00077,390.529,0.075,0.5301,0.0013,140.003,45.000,31468.24126,1.91327,393.052,29.476,45.057,45.000,0.00,0.12,-272.58,-272.64,-20,560,4,15.0,23.6,-5.7,15.2,24.7,-4.9,5.73,2.58,-4.4,21.8
2013-09-20 00:22:00,0.0,1.89927,0.00394,390.051,0.523,0.5304,0.0013,139.999,45.000,31469.00994,1.91066,392.668,29.488,45.057,45.000,0.00,0.12,-272.58,-272.63,-20,559,4,15.0,23.6,-5.6,15.2,24.7,-4.9,5.73,2.63,-4.4,21.8
2013-09-20 00:23:00,0.0,1.89440,0.00143,389.292,0.098,0.5293,0.0014,140.002,45.000,31470.41213,1.90446,391.803,29.471,45.057,45.000,0.00,0.12,-272.57,-272.64,-20,560,4,15.0,23.6,-5.6,15.2,24.7,-4.9,5.73,2.52,-4.4,21.8
2013-09-20 00:24:00,0.0,1.89044,0.00221,388.798,0.295,0.5295,0.0018,140.004,45.000,31469.59802,1.90110,391.377,29.491,45.057,45.000,0.00,0.12,-272.58,-272.64,-20,560,4,15.0,23.6,-5.6,15.2,24.6,-4.9,5.73,2.57,-4.4,21.8
2013-09-20 00:25:00,0.0,1.88605,0.00174,387.998,0.286,0.5301,0.0017,140.001,45.000,31471.53718,1.89641,390.544,29.496,45.057,45.000,0.00,0.12,-272.57,-272.64,-20,560,4,15.0,23.6,-5.6,15.2,24.7,-4.9,5.73,2.65,-4.4,21.8
2013-09-20 00:26:00,0.0,1.88628,0.00096,387.738,0.096,0.5332,0.0023,139.999,45.000,31471.42900,1.89593,390.251,29.488,45.057,45.000,0.00,0.12,-272.57,-272.64,-20,559,4,15.0,23.7,-5.6,15.2,24.8,-4.9,5.73,2.51,-4.4,21.8
2013-09-20 00:27:00,0.0,1.88862,0.00096,387.920,0.058,0.5353,0.0008,140.001,45.000,31471.32615,1.89867,390.450,29.482,45.057,45.000,0.00,0.12,-272.58,-272.64,-20,560,4,15.0,23.8,-5.5,15.2,24.9,-4.8,5.73,2.56,-4.4,21.8
2013-09-20 00:28:00,0.0,1.88908,0.00062,388.065,0.040,0.5360,0.0013,140.006,45.000,31472.71201,1.89904,390.598,29.489,45.057,45.000,0.00,0.12,-272.58,-272.64,-20,560,4,15.0,24.0,-5.4,15.2,25.0,-4.7,5.73,2.64,-4.4,21.8
2013-09-20 00:29:00,0.0,1.88948,0.00034,388.141,0.058,0.5398,0.0019,140.001,45.000,31469.98480,1.89958,390.699,29.496,45.057,45.000,0.00,0.12,-272.57,-272.63,-20,559,4,15.0,24.1,-5.4,15.2,25.2,-4.6,5.73,2.53,-4.4,21.8
2013-09-20 00:30:00,0.0,1.89060,0.00037,388.186,0.075,0.5438,0.0019,139.998,45.000,31468.32083,1.90084,390.756,29.500,45.057,45.000,0.00,0.12,-272.57,-272.64,-20,559,4,15.0,24.2,-5.3,15.2,25.3,-4.6,5.73,2.56,-4.4,21.8
2013-09-20 00:31:00,0.0,1.89116,0.00065,388.314,0.054,0.5441,0.0026,139.999,45.000,31468.34153,1.90121,390.890,29.500,45.057,45.000,0.00,0.12,-272.58,-272.64,-20,560,4,15.0,24.3,-5.3,15.1,25.4,-4.5,5.73,2.64,-4.4,21.8
2013-09-20 00:32:00,0.0,1.89165,0.00034,388.451,0.091,0.5464,0.0013,140.002,45.000,31467.58716,1.90207,391.033,29.500,45.057,45.000,0.00,0.12,-272.57,-272.64,-20,560,4,15.0,24.4,-5.2,15.2,25.5,-4.5,5.73,2.52,-4.4,21.8
2013-09-20 00:33:00,0.0,1.89184,0.00072,388.737,0.204,0.5508,0.0020,140.003,45.000,31469.46281,1.90220,391.338,29.498,45.057,45.000,0.00,0.12,-272.57,-272.63,-20,559,4,15.0,24.5,-5.1,15.2,25.7,-4.4,5.73,2.57,-4.4,21.8
2013-09-20 00:34:00,0.0,1.89549,0.00166,388.740,0.042,0.5524,0.0021,140.002,45.000,31468.59145,1.90531,391.365,29.496,45.057,45.000,0.00,0.12,-272.58,-272.64,-20,560,4,15.0,24.7,-5.1,15.2,25.8,-4.3,5.73,2.64,-4.4,21.8
2013-09-20 00:35:00,0.0,1.89675,0.00065,388.819,0.061,0.5584,0.0021,140.000,45.000,31468.22938,1.90721,391.472,29.497,45.057,45.000,0.00,0.12,-272.57,-272.64,-20,560,4,15.0,24.9,-4.9,15.2,26.1,-4.2,5.73,2.52,-4.4,21.8
2013-09-20 00:36:00,0.0,1.89786,0.00059,388.765,0.027,0.5623,0.0012,139.996,45.000,31466.03571,1.90852,391.443,29.494,45.057,45.000,0.00,0.12,-272.57,-272.63,-20,559,4,15.0,25.0,-4.9,15.2,26.3,-4.1,5.73,2.57,-4.4,21.8
2013-09-20 00:37:00,0.0,1.89710,0.00056,388.771,0.097,0.5671,0.0017,139.997,45.000,31470.00269,1.90797,391.475,29.500,45.057,45.000,0.00,0.12,-272.58,-272.64,-20,559,4,15.0,25.2,-4.8,15.2,26.5,-4.0,5.73,2.63,-4.4,21.8
2013-09-20 00:38:00,0.0,1.89737,0.00035,388.657,0.094,0.5698,0.0028,139.999,45.000,31467.82748,1.90807,391.357,29.503,45.057,45.000,0.00,0.12,-272.57,-272.64,-20,560,4,15.0,25.3,-4.7,15.2,26.6,-3.9,5.73,2.51,-4.4,21.8
2013-09-20 00:39:00,0.0,1.89740,0.00059,388.829,0.086,0.5723,0.0016,139.999,45.000,31469.30025,1.90833,391.544,29.500,45.057,45.000,0.00,0.12,-272.58,-272.63,-20,559,4,15.0,25.4,-4.7,15.1,26.8,-3.9,5.73,2.59,-4.4,21.7
2013-09-20 00:40:00,0.0,1.89698,0.00065,388.614,0.236,0.5732,0.0004,139.998,45.000,31468.03242,1.90806,391.383,29.500,45.057,45.000,0.00,0.12,-272.57,-272.64,-20,559,4,15.0,25.5,-4.6,15.1,26.8,-3.8,5.73,2.63,-4.4,21.7
2013-09-20 00:41:00,0.0,1.89549,0.00061,388.241,0.067,0.5757,0.0016,139.997,45.000,31469.65219,1.90663,390.982,29.500,45.057,45.000,0.00,0.12,-272.58,-272.64,-20,559,4,15.0,25.6,-4.6,15.1,26.9,-3.8,5.73,2.50,-4.4,21.7
2013-09-20 00:42:00,0.0,1.89272,0.00150,387.873,0.215,0.5749,0.0018,140.001,45.000,31469.76621,1.90408,390.639,29.503,45.057,45.000,0.00,0.12,-272.58,-272.64,-20,559,4,15.0,25.6,-4.6,15.1,27.0,-3.7,5.73,2.61,-4.4,21.7
2013-09-20 00:43:00,0.0,1.88682,0.00177,387.123,0.214,0.5763,0.0017,140.004,45.000,31470.56425,1.89828,389.888,29.508,45.057,45.000,0.00,0.12,-272.57,-272.63,-20,559,4,15.0,25.6,-4.6,15.1,27.0,-3.8,5.73,2.61,-4.4,21.7
2013-09-20 00:44:00,0.0,1.88378,0.00114,386.856,0.042,0.5759,0.0017,140.003,45.000,31470.04609,1.89490,389.587,29.512,45.057,45.000,0.00,0.12,-272.58,-272.64,-20,559,4,15.0,25.6,-4.6,15.1,27.0,-3.8,5.73,2.51,-4.4,21.7
2013-09-20 00:45:00,0.0,1.88729,0.00384,387.396,0.442,0.5779,0.0017,139.999,45.000,31469.37411,1.89709,390.064,29.550,45.057,45.000,0.00,0.12,-272.58,-272.64,-20,559,4,15.0,25.7,-4.5,15.1,27.1,-3.7,5.73,2.62,-4.4,21.7
2013-09-20 00:46:00,0.0,1.89231,0.00233,388.012,0.172,0.5804,0.0014,140.000,45.000,31469.48767,1.90395,390.799,29.563,45.057,45.000,0.00,0.12,-272.57,-272.64,-20,559,4,15.0,25.8,-4.5,15.1,27.2,-3.6,5.73,2.59,-4.4,21.7
2013-09-20 00:47:00,0.0,1.89165,0.00215,387.927,0.236,0.5850,0.0021,139.999,45.000,31469.47542,1.90215,390.666,29.563,45.057,45.000,0.00,0.29,-271.36,-270.50,-20,559,4,15.0,26.0,-4.4,15.1,27.4,-3.6,5.42,2.57,-7.5,21.7
2013-09-20 00:48:00,0.0,1.89747,0.00111,388.504,0.156,0.5863,0.0014,140.003,45.000,31469.58974,1.90794,391.278,29.565,45.057,45.000,0.00,0.12,-272.57,-272.64,-20,559,4,15.0,26.1,-4.3,15.1,27.6,-3.5,5.73,2.64,-4.4,21.7
2013-09-20 00:49:00,0.0,1.90276,0.00236,388.814,0.175,0.5901,0.0010,140.001,45.000,31470.07485,1.91318,391.591,29.563,45.057,45.000,0.00,0.12,-272.57,-272.63,-20,559,4,15.0,26.2,-4.2,15.1,27.7,-3.4,5.73,2.57,-4.4,21.7
2013-09-20 00:50:00,0.0,1.90246,0.00230,388.757,0.237,0.5904,0.0026,139.997,45.000,31469.94708,1.91420,391.591,29.563,45.057,45.000,0.00,0.12,-272.57,-272.64,-20,559,4,15.0,26.3,-4.2,15.1,27.8,-3.4,5.73,2.52,-4.4,21.7
2013-09-20 00:51:00,0.0,1.90153,0.00394,388.637,0.330,0.5931,0.0021,140.000,45.000,31470.53624,1.91238,391.430,29.564,45.057,45.000,0.00,0.12,-272.57,-272.64,-20,559,4,15.0,26.4,-4.1,15.1,27.9,-3.3,5.73,2.65,-4.4,21.7
2013-09-20 00:52:00,0.0,1.90478,0.00117,388.961,0.174,0.5943,0.0020,140.001,45.000,31470.89033,1.91644,391.826,29.568,45.057,45.000,0.00,0.12,-272.57,-272.64,-20,559,4,15.0,26.5,-4.1,15.1,28.0,-3.3,5.73,2.53,-4.4,21.7
2013-09-20 00:53:00,0.0,1.90145,0.00392,388.457,0.239,0.5973,0.0012,140.000,45.000,31471.92849,1.91404,391.341,29.577,45.057,45.000,0.00,0.12,-272.57,-272.63,-20,559,4,15.0,26.5,-4.1,15.1,28.1,-3.2,5.73,2.55,-4.4,21.7
2013-09-20 00:54:00,0.0,1.89455,0.00156,387.849,0.090,0.6003,0.0014,139.998,45.000,31474.17388,1.90576,390.712,29.564,45.057,45.000,0.00,0.12,-272.57,-272.64,-20,559,4,15.0,26.7,-4.0,15.1,28.2,-3.2,5.73,2.64,-4.4,21.7
2013-09-20 00:55:00,0.0,1.89919,0.00150,387.941,0.163,0.6043,0.0009,139.996,45.000,31471.69817,1.91014,390.781,29.580,45.057,45.000,0.00,0.12,-272.58,-272.64,-20,559,4,15.0,26.8,-3.9,15.1,28.4,-3.1,5.73,2.51,-4.4,21.7
2013-09-20 00:56:00,0.0,1.90123,0.00118,388.257,0.148,0.6065,0.0027,140.001,45.000,31472.18364,1.91274,391.150,29.575,45.057,45.000,0.00,0.12,-272.57,-272.64,-20,559,4,15.0,26.9,-3.9,15.1,28.5,-3.1,5.73,2.59,-4.4,21.6
2013-09-20 00:57:00,0.0,1.90248,0.00099,388.640,0.226,0.6080,0.0033,139.998,45.000,31471.92612,1.91399,391.512,29.575,45.057,45.000,0.00,0.12,-272.58,-272.63,-20,559,4,15.0,27.1,-3.8,15.1,28.6,-3.0,5.73,2.62,-4.3,21.6
2013-09-20 00:58:00,0.0,1.90232,0.00088,388.697,0.162,0.6132,0.0009,140.003,45.000,31471.15818,1.91411,391.619,29.594,45.057,45.000,0.00,0.12,-272.58,-272.63,-20,559,4,15.0,27.2,-3.7,15.1,28.8,-2.9,5.73,2.51,-4.4,21.7
2013-09-20 00:59:00,0.0,1.90128,0.00041,388.521,0.086,0.6149,0.0016,140.000,45.000,31470.09418,1.91299,391.442,29.619,45.057,45.000,0.00,0.12,-272.58,-272.64,-20,559,4,15.0,27.4,-3.7,15.1,28.9,-2.8,5.73,2.63,-4.4,21.7
2013-09-20 01:00:00,0.0,1.90137,0.00131,388.683,0.136,0.6184,0.0014,139.999,45.000,31468.71772,1.91300,391.607,29.611,45.057,45.000,0.00,0.12,-272.57,-272.63,-20,559,4,15.0,27.5,-3.6,15.1,29.1,-2.8,5.73,2.58,-4.4,21.7
2013-09-20 01:01:00,0.0,1.90214,0.00046,388.848,0.059,0.6197,0.0027,140.001,45.000,31471.41043,1.91403,391.803,29.603,45.057,45.000,0.00,0.12,-272.57,-272.64,-20,559,4,15.0,27.6,-3.6,15.1,29.2,-2.7,5.73,2.52,-4.3,21.7
2013-09-20 01:02:00,0.0,1.90167,0.00135,388.949,0.134,0.6209,0.0006,139.997,45.000,31469.47445,1.91347,391.894,29.613,45.057,45.000,0.00,0.12,-272.58,-272.64,-20,559,4,15.0,27.7,-3.5,15.1,29.3,-2.6,5.73,2.64,-4.4,21.7
2013-09-20 01:03:00,0.0,1.90160,0.00041,388.916,0.072,0.6241,0.0019,140.000,45.000,31468.91156,1.91355,391.900,29.608,45.057,45.000,0.00,0.12,-272.57,-272.63,-20,559,4,15.0,27.8,-3.4,15.1,29.4,-2.6,5.73,2.56,-4.3,21.7
2013-09-20 01:04:00,0.0,1.90178,0.00049,388.991,0.090,0.6275,0.0007,140.001,45.000,31472.62828,1.91376,391.981,29.579,45.057,45.000,0.00,0.12,-272.58,-272.64,-20,559,4,15.0,27.9,-3.4,15.1,29.6,-2.5,5.73,2.53,-4.4,21.7
2013-09-20 01:05:00,0.0,1.90287,0.00109,388.944,0.038,0.6295,0.0014,140.003,45.000,31472.99819,1.91450,391.939,29.602,45.057,45.000,0.00,0.12,-272.57,-272.64,-20,559,4,15.0,28.0,-3.3,15.1,29.7,-2.5,5.73,2.65,-4.4,21.7
2013-09-20 01:06:00,0.0,1.90625,0.00095,389.221,0.139,0.6312,0.0027,139.998,45.000,31471.25376,1.91822,392.222,29.618,45.057,45.000,0.00,0.12,-272.57,-272.63,-20,559,4,15.0,28.1,-3.3,15.1,29.8,-2.4,5.73,2.53,-4.3,21.7
2013-09-20 01:07:00,0.0,1.90550,0.00097,389.001,0.156,0.6356,0.0015,139.995,45.000,31471.02405,1.91746,392.025,29.625,45.057,45.000,0.00,0.12,-272.57,-272.64,-20,559,4,15.0,28.2,-3.3,15.2,29.8,-2.4,5.73,2.57,-4.3,21.7
2013-09-20 01:08:00,0.0,1.90659,0.00063,389.215,0.020,0.6359,0.0015,140.000,45.000,31471.61840,1.91887,392.255,29.624,45.057,45.000,0.00,0.12,-272.57,-272.64,-20,559,4,15.0,28.3,-3.2,15.2,29.9,-2.3,5.73,2.64,-4.4,21.7
2013-09-20 01:09:00,0.0,1.90583,0.00026,389.216,0.098,0.6385,0.0021,140.005,45.000,31475.19014,1.91801,392.271,29.624,45.057,45.000,0.00,0.12,-272.57,-272.64,-20,559,4,15.1,28.4,-3.1,15.1,30.0,-2.3,5.73,2.50,-4.4,21.7
2013-09-20 01:10:00,0.0,1.90491,0.00077,389.064,0.064,0.6388,0.0011,140.004,45.000,31477.54291,1.91740,392.106,29.625,45.057,45.000,0.00,0.12,-272.58,-272.64,-20,559,4,15.1,28.4,-3.1,15.1,30.1,-2.3,5.73,2.62,-4.3,21.7
2013-09-20 01:11:00,0.0,1.90299,0.00029,388.888,0.069,0.6401,0.0015,140.003,45.000,31475.14546,1.91529,391.963,29.625,45.057,45.000,0.00,0.12,-272.58,-272.64,-20,559,4,15.1,28.5,-3.1,15.2,30.1,-2.3,5.73,2.59,-4.3,21.7
2013-09-20 01:12:00,0.0,1.90326,0.00019,388.778,0.055,0.6405,0.0013,140.000,45.000,31474.65263,1.91552,391.841,29.625,45.057,45.000,0.00,0.12,-272.57,-272.64,-20,559,4,15.1,28.5,-3.1,15.2,30.1,-2.2,5.73,2.51,-4.3,21.7
2013-09-20 01:13:00,0.0,1.90274,0.00043,388.772,0.025,0.6409,0.0011,139.997,45.000,31476.68278,1.91502,391.822,29.625,45.057,45.000,0.00,0.12,-272.57,-272.63,-20,559,4,15.1,28.5,-3.1,15.2,30.2,-2.2,5.73,2.65,-4.3,21.7
2013-09-20 01:14:00,0.0,1.90286,0.00037,388.783,0.035,0.6416,0.0018,140.004,45.000,31479.78503,1.91504,391.842,29.626,45.057,45.000,0.00,0.12,-272.58,-272.64,-20,559,4,15.1,28.5,-3.0,15.2,30.2,-2.2,5.73,2.54,-4.3,21.7
2013-09-20 01:15:00,0.0,1.90190,0.00116,388.848,0.103,0.6427,0.0026,140.002,45.000,31477.45471,1.91457,391.898,29.628,45.057,45.000,0.00,0.12,-272.57,-272.63,-20,559,4,15.1,28.6,-3.0,15.2,30.3,-2.2,5.73,2.56,-4.3,21.7
2013-09-20 01:16:00,0.0,1.90002,0.00064,389.000,0.027,0.6450,0.0015,140.005,45.000,31478.68739,1.91228,392.081,29.628,45.057,45.000,0.00,0.12,-272.57,-272.64,-19,559,4,15.1,28.7,-3.0,15.2,30.3,-2.1,5.73,2.64,-4.3,21.7
2013-09-20 01:17:00,0.0,1.90124,0.00070,388.996,0.038,0.6451,0.0011,139.998,45.000,31476.39502,1.91340,392.070,29.625,45.057,45.000,0.00,0.12,-272.57,-272.63,-20,559,4,15.1,28.7,-3.0,15.2,30.3,-2.2,5.73,2.51,-4.3,21.7
2013-09-20 01:18:00,0.0,1.90223,0.00042,389.018,0.044,0.6451,0.0018,139.998,45.000,31477.37559,1.91443,392.098,29.629,45.057,45.000,0.00,0.12,-272.58,-272.64,-19,559,4,15.1,28.7,-2.9,15.2,30.3,-2.2,5.73,2.62,-4.3,21.7
2013-09-20 01:19:00,0.0,1.90368,0.00026,389.026,0.050,0.6453,0.0016,140.003,45.000,31479.84876,1.91586,392.108,29.639,45.057,45.000,0.00,0.12,-272.57,-272.64,-19,559,4,15.1,28.7,-3.0,15.2,30.4,-2.1,5.73,2.59,-4.3,21.7
2013-09-20 01:20:00,0.0,1.90450,0.00033,389.041,0.035,0.6473,0.0013,139.999,45.000,31479.95247,1.91686,392.126,29.646,45.057,45.000,0.00,0.12,-272.57,-272.63,-20,559,4,15.1,28.7,-2.9,15.2,30.4,-2.1,5.73,2.52,-4.3,21.7
2013-09-20 01:21:00,0.0,1.90459,0.00039,389.062,0.029,0.6478,0.0017,139.999,45.000,31480.23456,1.91681,392.155,29.662,45.057,45.000,0.00,0.12,-272.58,-272.64,-19,559,4,15.1,28.7,-2.9,15.2,30.4,-2.1,5.73,2.65,-4.3,21.7
2013-09-20 01:22:00,0.0,1.90465,0.00045,389.055,0.032,0.6507,0.0021,140.001,45.000,31481.08767,1.91720,392.160,29.659,45.057,45.000,0.00,0.12,-272.57,-272.64,-19,559,4,15.1,28.9,-2.8,15.2,30.5,-2.1,5.73,2.53,-4.3,21.7
2013-09-20 01:23:00,0.0,1.90416,0.00064,389.004,0.061,0.6530,0.0022,140.000,45.000,31481.07126,1.91659,392.130,29.681,45.057,45.000,0.00,0.12,-272.57,-272.63,-20,559,4,15.1,29.0,-2.8,15.2,30.7,-2.0,5.73,2.58,-4.3,21.7
2013-09-20 01:24:00,0.0,1.90492,0.00034,388.899,0.029,0.6584,0.0025,140.003,45.000,31482.60883,1.91758,392.042,29.685,45.057,45.000,0.00,0.12,-272.57,-272.63,-19,559,4,15.1,29.2,-2.7,15.2,30.8,-1.9,5.73,2.63,-4.3,21.7
2013-09-20 01:25:00,0.0,1.90444,0.00046,388.808,0.025,0.6626,0.0013,140.000,45.000,31481.70192,1.91706,391.971,29.672,45.057,45.000,0.00,0.12,-272.58,-272.64,-19,559,4,15.1,29.3,-2.6,15.2,31.0,-1.8,5.73,2.51,-4.3,21.7
2013-09-20 01:26:00,0.0,1.90406,0.00028,388.750,0.048,0.6629,0.0013,139.999,45.000,31483.71414,1.91676,391.914,29.675,45.057,45.000,0.00,0.12,-272.57,-272.63,-19,559,4,15.2,29.5,-2.5,15.2,31.1,-1.8,5.73,2.64,-4.3,21.7
2013-09-20 01:27:00,0.0,1.90379,0.00035,388.753,0.040,0.6675,0.0020,140.001,45.000,31484.86144,1.91666,391.946,29.686,45.057,45.000,0.00,0.12,-272.57,-272.63,-19,560,4,15.2,29.6,-2.5,15.2,31.3,-1.7,5.73,2.56,-4.3,21.8
2013-09-20 01:28:00,0.0,1.90269,0.00041,388.472,0.068,0.6719,0.0012,140.001,45.000,31486.61711,1.91560,391.689,29.688,45.057,45.000,0.00,0.12,-272.58,-272.64,-19,559,4,15.2,29.8,-2.4,15.2,31.5,-1.6,5.73,2.54,-4.3,21.8
2013-09-20 01:29:00,0.0,1.90328,0.00046,388.492,0.028,0.6751,0.0016,140.001,45.000,31484.76314,1.91614,391.707,29.688,45.057,45.000,0.00,0.12,-272.57,-272.64,-19,559,4,15.2,30.0,-2.3,15.2,31.6,-1.5,5.73,2.65,-4.3,21.8
2013-09-20 01:30:00,0.0,1.90365,0.00038,388.652,0.095,0.6773,0.0012,140.000,45.000,31483.35311,1.91654,391.869,29.691,45.057,45.000,0.00,0.12,-272.57,-272.64,-19,559,4,15.2,30.1,-2.3,15.2,31.7,-1.5,5.73,2.52,-4.2,21.8
2013-09-20 01:31:00,0.0,1.90342,0.00033,388.686,0.006,0.6801,0.0017,140.005,45.000,31487.75881,1.91648,391.936,29.691,45.057,45.000,0.00,0.12,-272.57,-272.64,-19,559,4,15.2,30.2,-2.2,15.2,31.9,-1.4,5.73,2.60,-4.3,21.8
2013-09-20 01:32:00,0.0,1.90422,0.00050,388.683,0.046,0.6812,0.0023,140.002,45.000,31488.57259,1.91711,391.940,29.696,45.057,45.000,0.00,0.12,-272.58,-272.64,-19,559,4,15.2,30.3,-2.2,15.2,32.0,-1.4,5.73,2.61,-4.3,21.7
2013-09-20 01:33:00,0.0,1.90372,0.00041,388.554,0.055,0.6817,0.0014,139.999,45.000,31488.05258,1.91679,391.816,29.702,45.057,45.000,0.00,0.12,-272.57,-272.64,-19,560,4,15.2,30.3,-2.1,15.2,32.0,-1.4,5.73,2.51,-4.3,21.8
2013-09-20 01:34:00,0.0,1.90451,0.00030,388.579,0.062,0.6868,0.0013,140.000,45.000,31486.68519,1.91753,391.842,29.730,45.057,45.000,0.00,0.12,-272.57,-272.63,-19,559,4,15.2,30.5,-2.1,15.2,32.2,-1.3,5.73,2.65,-4.2,21.8
2013-09-20 01:35:00,0.0,1.90451,0.00028,388.638,0.048,0.6909,0.0009,140.002,45.000,31489.88126,1.91781,391.943,29.721,45.057,45.000,0.00,0.12,-272.58,-272.64,-19,559,4,15.2,30.6,-2.0,15.2,32.3,-1.2,5.73,2.54,-4.3,21.8
2013-09-20 01:36:00,0.0,1.90460,0.00026,388.516,0.043,0.6918,0.0008,139.998,45.000,31487.50252,1.91778,391.821,29.736,45.057,45.000,0.00,0.12,-272.57,-272.64,-19,560,4,15.2,30.7,-1.9,15.3,32.4,-1.1,5.73,2.57,-4.2,21.8
2013-09-20 01:37:00,0.0,1.90434,0.00065,388.554,0.037,0.6978,0.0019,140.003,45.000,31487.89247,1.91775,391.885,29.713,45.057,45.000,0.00,0.12,-272.57,-272.64,-19,560,4,15.2,30.9,-1.8,15.3,32.6,-1.1,5.73,2.63,-4.3,21.8
2013-09-20 01:38:00,0.0,1.90409,0.00047,388.489,0.033,0.7012,0.0015,140.004,45.000,31489.90008,1.91757,391.840,29.710,45.057,45.000,0.00,0.12,-272.58,-272.64,-19,559,4,15.2,31.1,-1.8,15.3,32.8,-1.0,5.73,2.51,-4.2,21.8
2013-09-20 01:39:00,0.0,1.90365,0.00070,388.403,0.038,0.7028,0.0017,140.003,45.000,31491.88094,1.91701,391.761,29.724,45.057,45.000,0.00,0.12,-272.58,-272.64,-19,560,4,15.2,31.1,-1.7,15.3,32.9,-0.9,5.73,2.64,-4.2,21.8
2013-09-20 01:40:00,0.0,1.90514,0.00037,388.378,0.065,0.7071,0.0036,139.998,45.000,31490.56398,1.91864,391.755,29.727,45.057,45.000,0.00,0.12,-272.57,-272.64,-18,560,4,15.2,31.3,-1.7,15.3,33.0,-0.9,5.73,2.57,-4.2,21.8
2013-09-20 01:41:00,0.0,1.90467,0.00029,388.387,0.029,0.7109,0.0023,140.000,45.000,31493.12986,1.91836,391.783,29.720,45.057,45.000,0.00,0.12,-272.58,-272.64,-18,560,4,15.2,31.5,-1.6,15.3,33.3,-0.8,5.73,2.55,-4.2,21.8
2013-09-20 01:42:00,0.0,1.90390,0.00037,388.227,0.039,0.7114,0.0014,140.004,45.000,31495.14956,1.91754,391.627,29.731,45.057,45.000,0.00,0.12,-272.58,-272.63,-18,560,4,15.2,31.6,-1.5,15.3,33.4,-0.7,5.73,2.65,-4.2,21.9
2013-09-20 01:43:00,0.0,1.90397,0.00026,388.166,0.043,0.7127,0.0014,139.993,45.000,31492.34017,1.91762,391.572,29.749,45.057,45.000,0.00,0.12,-272.57,-272.64,-17,560,4,15.2,31.6,-1.5,15.3,33.3,-0.8,5.73,2.52,-4.2,21.8
2013-09-20 01:44:00,0.0,1.90369,0.00035,388.311,0.026,0.7113,0.0018,140.000,45.000,31494.28394,1.91745,391.703,29.747,45.057,45.000,0.00,0.12,-272.57,-272.64,-17,560,4,15.2,31.5,-1.6,15.3,33.2,-0.8,5.73,2.61,-4.2,21.9
2013-09-20 01:45:00,0.0,1.90299,0.00031,388.287,0.022,0.7086,0.0012,140.001,45.000,31495.72677,1.91661,391.671,29.750,45.057,45.000,0.00,0.12,-272.58,-272.64,-17,560,4,15.3,31.4,-1.6,15.3,33.1,-0.8,5.73,2.61,-4.2,21.9
2013-09-20 01:46:00,0.0,1.90256,0.00035,388.264,0.023,0.7103,0.0020,140.000,45.000,31495.21907,1.91621,391.657,29.750,45.057,45.000,0.00,0.12,-272.58,-272.64,-17,560,4,15.3,31.4,-1.6,15.3,33.1,-0.8,5.73,2.51,-4.2,21.9